Weather History for KLBL - March, 2013

Change the Weather History Date:

Wednesday, March 6, 2013

  Actual Average Record
Temperature  
Mean Temperature 38 °F -  
Max Temperature 51 °F 57 °F 85 °F (1972)
Min Temperature 24 °F 27 °F -6 °F (1948)
Degree Days  
Heating Degree Days 28    
Moisture  
Dew Point 19 °F    
Average Humidity 48    
Maximum Humidity 69    
Minimum Humidity 30    
Precipitation  
Precipitation 0.00 in - - ()
Sea Level Pressure  
Sea Level Pressure 30.16 in    
Wind  
Wind Speed 15 mph (SSE)    
Max Wind Speed 31 mph    
Max Gust Speed 38 mph    
Visibility 10 miles    
Events      
Averages and records for this station are not official NWS values.
T = Trace of Precipitation, MM = Missing Value Source: NWS Daily Summary

Daily Weather History Graph

Daily Weather History Graph

Search for Another Location

Airport or City:

Trip Planner

Search our weather history database for the weather conditions in past years. The results will help you decide how hot, cold, wet, or windy it might be!

Date:

Astronomy

Mar. 06, 2013 Rise Set
Actual Time 7:07 AM CST 6:43 PM CST
Civil Twilight 6:41 AM CST 7:09 PM CST
Nautical Twilight 6:11 AM CST 7:39 PM CST
Astronomical Twilight 5:41 AM CST 8:09 PM CST
Moon 3:12 AM CST (3/6) 1:32 PM CST (3/6)
Length of Visible Light 12h 27m
Length of Day
11h 35m
Waning Crescent, 29% of the Moon is Illuminated
Mar 6
Waning Crescent
Mar 11
New
Mar 19
First Quarter
Mar 27
Full
Apr 2
Last Quarter

Hourly Weather History & Observations

Time (CST) Temp. Windchill Dew Point Humidity Pressure Visibility Wind Dir Wind Speed Gust Speed Precip Events Conditions
12:15 AM 28.4 °F 19.7 °F 12.2 °F 51% 30.32 in 10.0 mi SE 9.2 mph - N/A   Clear
12:35 AM 28.4 °F 19.7 °F 14.0 °F 55% 30.31 in 10.0 mi SE 9.2 mph - N/A   Clear
12:55 AM 28.4 °F 19.7 °F 12.2 °F 51% 30.30 in 10.0 mi SE 9.2 mph - N/A   Clear
1:15 AM 28.4 °F 20.4 °F 15.8 °F 59% 30.30 in 10.0 mi SE 8.1 mph - N/A   Clear
1:35 AM 30.2 °F 21.9 °F 15.8 °F 55% 30.30 in 10.0 mi SE 9.2 mph - N/A   Clear
1:55 AM 28.4 °F 19.1 °F 15.8 °F 59% 30.31 in 10.0 mi SE 10.4 mph - N/A   Clear
2:15 AM 28.4 °F 18.5 °F 14.0 °F 55% 30.31 in 10.0 mi SE 11.5 mph - N/A   Clear
2:35 AM 28.4 °F 19.1 °F 15.8 °F 59% 30.30 in 10.0 mi SE 10.4 mph - N/A   Clear
2:55 AM 28.4 °F 18.5 °F 14.0 °F 55% 30.29 in 10.0 mi SE 11.5 mph - N/A   Clear
3:15 AM 26.6 °F 16.2 °F 14.0 °F 59% 30.28 in 10.0 mi SE 11.5 mph - N/A   Clear
3:35 AM 28.4 °F 18.5 °F 15.8 °F 59% 30.28 in 10.0 mi SE 11.5 mph - N/A   Clear
3:55 AM 26.6 °F 16.8 °F 14.0 °F 59% 30.28 in 10.0 mi SE 10.4 mph - N/A   Clear
4:15 AM 26.6 °F 16.8 °F 14.0 °F 59% 30.27 in 10.0 mi SE 10.4 mph - N/A   Clear
4:35 AM 26.6 °F 16.8 °F 14.0 °F 59% 30.27 in 10.0 mi SE 10.4 mph - N/A   Clear
4:55 AM 26.6 °F 16.2 °F 15.8 °F 64% 30.27 in 10.0 mi SE 11.5 mph - N/A   Clear
5:15 AM 24.8 °F 14.6 °F 14.0 °F 64% 30.27 in 10.0 mi SE 10.4 mph - N/A   Clear
5:35 AM 24.8 °F 14.6 °F 12.2 °F 59% 30.27 in 10.0 mi SE 10.4 mph - N/A   Clear
5:55 AM 24.8 °F 14.6 °F 14.0 °F 64% 30.27 in 10.0 mi SSE 10.4 mph - N/A   Clear
6:15 AM 24.8 °F 14.0 °F 15.8 °F 69% 30.26 in 10.0 mi SSE 11.5 mph - N/A   Clear
6:35 AM 24.8 °F 13.4 °F 15.8 °F 69% 30.27 in 10.0 mi SE 12.7 mph - N/A   Clear
6:55 AM 26.6 °F 15.2 °F 15.8 °F 64% 30.26 in 10.0 mi SE 13.8 mph - N/A   Clear
7:15 AM 26.6 °F 15.7 °F 17.6 °F 69% 30.25 in 10.0 mi SE 12.7 mph - N/A   Clear
7:35 AM 26.6 °F 16.2 °F 17.6 °F 69% 30.25 in 10.0 mi SE 11.5 mph - N/A   Clear
7:55 AM 28.4 °F 19.1 °F 17.6 °F 64% 30.25 in 10.0 mi SSE 10.4 mph - N/A   Clear
8:15 AM 30.2 °F 20.2 °F 19.4 °F 64% 30.25 in 10.0 mi SSE 12.7 mph - N/A   Clear
8:35 AM 32.0 °F 21.6 °F 19.4 °F 60% 30.25 in 10.0 mi SSE 15.0 mph - N/A   Clear
8:55 AM 33.8 °F 23.5 °F 21.2 °F 60% 30.25 in 10.0 mi South 16.1 mph - N/A   Clear
9:15 AM 35.6 °F 24.8 °F 21.2 °F 56% 30.25 in 10.0 mi South 19.6 mph 27.6 mph N/A   Clear
9:35 AM 37.4 °F 26.9 °F 23.0 °F 56% 30.25 in 10.0 mi South 20.7 mph - N/A   Clear
9:55 AM 39.2 °F 29.8 °F 23.0 °F 52% 30.24 in 10.0 mi South 18.4 mph - N/A   Clear
10:15 AM 41.0 °F 31.1 °F 21.2 °F 45% 30.23 in 10.0 mi South 23.0 mph - N/A   Clear
10:35 AM 44.6 °F 35.5 °F 21.2 °F 39% 30.23 in 10.0 mi South 25.3 mph 31.1 mph N/A   Clear
10:55 AM 44.6 °F 35.3 °F 21.2 °F 39% 30.22 in 10.0 mi South 26.5 mph 34.5 mph N/A   Clear
11:15 AM 44.6 °F 36.4 °F 21.2 °F 39% 30.21 in 10.0 mi South 20.7 mph 28.8 mph N/A   Clear
11:35 AM 46.4 °F 37.9 °F 23.0 °F 40% 30.20 in 10.0 mi South 25.3 mph 31.1 mph N/A   Clear
11:55 AM 48.2 °F - 23.0 °F 37% 30.20 in 10.0 mi South 31.1 mph 36.8 mph N/A   Clear
12:15 PM 51.8 °F - 23.0 °F 33% 30.18 in 10.0 mi South 28.8 mph 35.7 mph N/A   Clear
12:35 PM 51.8 °F - 23.0 °F 33% 30.18 in 10.0 mi South 28.8 mph 36.8 mph N/A   Clear
12:55 PM 51.8 °F - 23.0 °F 33% 30.16 in 10.0 mi South 31.1 mph 38.0 mph N/A   Clear
1:15 PM 51.8 °F - 21.2 °F 30% 30.14 in 10.0 mi South 28.8 mph 38.0 mph N/A   Clear
1:35 PM 51.8 °F - 21.2 °F 30% 30.13 in 10.0 mi South 29.9 mph 34.5 mph N/A   Clear
1:55 PM 51.8 °F - 21.2 °F 30% 30.12 in 10.0 mi South 25.3 mph 32.2 mph N/A   Clear
2:15 PM 48.2 °F - 19.4 °F 32% 30.10 in 10.0 mi South 26.5 mph 33.4 mph N/A   Clear
2:35 PM 48.2 °F - 19.4 °F 32% 30.09 in 10.0 mi South 25.3 mph 33.4 mph N/A   Clear
2:55 PM 48.2 °F - 19.4 °F 32% 30.08 in 10.0 mi South 27.6 mph 33.4 mph N/A   Clear
3:15 PM 51.8 °F - 21.2 °F 30% 30.08 in 10.0 mi South 27.6 mph 33.4 mph N/A   Clear
3:35 PM 51.8 °F - 21.2 °F 30% 30.07 in 10.0 mi South 25.3 mph 32.2 mph N/A   Clear
3:55 PM 51.8 °F - 21.2 °F 30% 30.06 in 10.0 mi South 27.6 mph 35.7 mph N/A   Clear
4:15 PM 51.8 °F - 21.2 °F 30% 30.05 in 10.0 mi South 25.3 mph 35.7 mph N/A   Clear
4:35 PM 50.0 °F - 21.2 °F 32% 30.04 in 10.0 mi South 28.8 mph 36.8 mph N/A   Clear
4:55 PM 50.0 °F - 21.2 °F 32% 30.03 in 10.0 mi South 29.9 mph - N/A   Clear
5:15 PM 48.2 °F - 21.2 °F 34% 30.03 in 10.0 mi South 23.0 mph 33.4 mph N/A   Clear
5:35 PM 48.2 °F - 21.2 °F 34% 30.02 in 10.0 mi SSE 24.2 mph 34.5 mph N/A   Clear
5:55 PM 46.4 °F 38.3 °F 19.4 °F 34% 30.02 in 10.0 mi SSE 23.0 mph 29.9 mph N/A   Clear
6:15 PM 46.4 °F 38.7 °F 21.2 °F 37% 30.02 in 10.0 mi SSE 20.7 mph 25.3 mph N/A   Clear
6:35 PM 44.6 °F 36.9 °F 21.2 °F 39% 30.01 in 10.0 mi SSE 18.4 mph - N/A   Clear
6:55 PM 42.8 °F 34.3 °F 21.2 °F 42% 30.00 in 10.0 mi SSE 19.6 mph - N/A   Clear
7:15 PM 42.8 °F 34.8 °F 21.2 °F 42% 30.00 in 10.0 mi SSE 17.3 mph - N/A   Clear
7:35 PM 42.8 °F 34.8 °F 21.2 °F 42% 30.01 in 10.0 mi SSE 17.3 mph 23.0 mph N/A   Clear
7:55 PM 42.8 °F 35.1 °F 21.2 °F 42% 30.01 in 10.0 mi SSE 16.1 mph - N/A   Clear
8:35 PM 39.2 °F 30.8 °F 21.2 °F 49% 30.02 in 10.0 mi SSE 15.0 mph - N/A   Clear
8:55 PM 39.2 °F 30.5 °F 21.2 °F 49% 30.01 in 10.0 mi SSE 16.1 mph - N/A   Clear
9:15 PM 39.2 °F 30.5 °F 19.4 °F 45% 30.01 in 10.0 mi SSE 16.1 mph - N/A   Clear
9:35 PM 39.2 °F 30.2 °F 19.4 °F 45% 30.01 in 10.0 mi South 17.3 mph - N/A   Clear
9:55 PM 39.2 °F 30.8 °F 19.4 °F 45% 30.01 in 10.0 mi SSE 15.0 mph - N/A   Clear
10:15 PM 39.2 °F 30.5 °F 19.4 °F 45% 30.01 in 10.0 mi SSE 16.1 mph 20.7 mph N/A   Clear
10:35 PM 37.4 °F 29.3 °F 19.4 °F 48% 30.01 in 10.0 mi SSE 12.7 mph - N/A   Clear
10:55 PM 37.4 °F 28.9 °F 19.4 °F 48% 30.01 in 10.0 mi SSE 13.8 mph - N/A   Clear
11:15 PM 37.4 °F 29.8 °F 19.4 °F 48% 30.00 in 10.0 mi SSE 11.5 mph - N/A   Clear
11:35 PM 37.4 °F 29.8 °F 19.4 °F 48% 30.00 in 10.0 mi SSE 11.5 mph - N/A   Clear
11:55 PM 35.6 °F 28.0 °F 19.4 °F 52% 29.99 in 10.0 mi SSE 10.4 mph - N/A   Clear